TimeCDT,TemperatureF,Dew PointF,Humidity,Sea Level PressureIn,VisibilityMPH,Wind Direction,Wind SpeedMPH,Gust SpeedMPH,PrecipitationIn,Events,Conditions,WindDirDegrees,DateUTC
12:15 AM,60.8,57.2,88,30.00,7.0,SE,8.1,-,N/A,,Overcast,140,2013-10-15 05:15:00
12:35 AM,60.8,57.2,88,29.98,10.0,SE,6.9,-,N/A,,Overcast,140,2013-10-15 05:35:00
12:55 AM,60.8,57.2,88,29.98,9.0,SSE,6.9,-,N/A,,Overcast,150,2013-10-15 05:55:00
1:15 AM,60.8,57.2,88,29.97,8.0,SSE,4.6,-,N/A,,Overcast,150,2013-10-15 06:15:00
1:35 AM,60.8,57.2,88,29.97,9.0,SSE,6.9,-,N/A,,Overcast,160,2013-10-15 06:35:00
1:55 AM,60.8,57.2,88,29.95,7.0,SSE,6.9,-,N/A,,Overcast,150,2013-10-15 06:55:00
2:15 AM,62.6,57.2,82,29.95,3.0,SSE,8.1,-,N/A,,Overcast,160,2013-10-15 07:15:00
2:35 AM,62.6,57.2,82,29.95,10.0,South,9.2,-,N/A,,Overcast,170,2013-10-15 07:35:00
2:55 AM,62.6,57.2,82,29.95,10.0,South,8.1,-,N/A,,Overcast,170,2013-10-15 07:55:00
3:15 AM,62.6,57.2,82,29.94,8.0,South,9.2,-,N/A,,Overcast,170,2013-10-15 08:15:00
3:35 AM,62.6,57.2,82,29.94,8.0,South,8.1,-,0.01,,Overcast,180,2013-10-15 08:35:00
3:55 AM,60.8,57.2,88,29.93,5.0,South,5.8,-,0.02,,Overcast,170,2013-10-15 08:55:00
4:15 AM,62.6,57.2,82,29.93,5.0,South,5.8,-,0.01,,Overcast,170,2013-10-15 09:15:00
4:35 AM,62.6,57.2,82,29.92,6.0,South,8.1,-,0.01,,Overcast,180,2013-10-15 09:35:00
4:55 AM,62.6,57.2,82,29.91,8.0,South,8.1,-,0.01,,Overcast,180,2013-10-15 09:55:00
5:15 AM,62.6,57.2,82,29.91,8.0,South,8.1,-,N/A,,Overcast,170,2013-10-15 10:15:00
5:35 AM,62.6,57.2,82,29.91,8.0,South,8.1,-,N/A,,Overcast,170,2013-10-15 10:35:00
5:55 AM,62.6,57.2,82,29.93,8.0,West,4.6,-,N/A,,Overcast,260,2013-10-15 10:55:00
6:15 AM,62.6,59.0,88,29.93,9.0,WNW,3.5,-,0.02,,Overcast,300,2013-10-15 11:15:00
6:35 AM,62.6,59.0,88,29.94,4.0,WNW,5.8,-,0.16,,Overcast,290,2013-10-15 11:35:00
6:55 AM,62.6,59.0,88,29.93,4.0,Calm,Calm,-,0.25,,Overcast,0,2013-10-15 11:55:00
7:15 AM,62.6,59.0,88,29.93,4.0,Calm,Calm,-,0.04,,Overcast,0,2013-10-15 12:15:00
7:35 AM,62.6,59.0,88,29.92,3.0,SSE,4.6,-,0.05,,Mostly Cloudy,160,2013-10-15 12:35:00
7:55 AM,62.6,59.0,88,29.92,1.2,SSE,3.5,-,0.05,,Overcast,150,2013-10-15 12:55:00
8:15 AM,62.6,59.0,88,29.93,1.8,South,4.6,-,N/A,,Overcast,190,2013-10-15 13:15:00
8:35 AM,62.6,59.0,88,29.94,2.0,West,4.6,-,N/A,,Overcast,260,2013-10-15 13:35:00
8:55 AM,62.6,59.0,88,29.96,2.0,West,5.8,-,N/A,,Overcast,280,2013-10-15 13:55:00
9:15 AM,60.8,57.2,88,29.96,8.0,WNW,6.9,-,N/A,,Overcast,300,2013-10-15 14:15:00
9:35 AM,60.8,57.2,88,29.97,10.0,WNW,6.9,-,N/A,,Overcast,290,2013-10-15 14:35:00
9:55 AM,60.8,57.2,88,29.97,10.0,West,8.1,-,N/A,,Overcast,280,2013-10-15 14:55:00
10:15 AM,60.8,57.2,88,29.97,10.0,West,6.9,-,N/A,,Overcast,280,2013-10-15 15:15:00
10:35 AM,62.6,57.2,82,29.97,10.0,WNW,5.8,-,N/A,,Overcast,290,2013-10-15 15:35:00
10:55 AM,62.6,55.4,77,29.98,10.0,West,6.9,-,N/A,,Overcast,280,2013-10-15 15:55:00
11:15 AM,60.8,55.4,82,29.98,10.0,West,6.9,-,N/A,,Overcast,270,2013-10-15 16:15:00
11:35 AM,62.6,55.4,77,29.99,10.0,WNW,8.1,-,N/A,,Overcast,290,2013-10-15 16:35:00
11:55 AM,62.6,55.4,77,29.98,10.0,WNW,8.1,-,N/A,,Overcast,300,2013-10-15 16:55:00
12:15 PM,60.8,55.4,82,29.98,10.0,WNW,8.1,-,N/A,,Overcast,290,2013-10-15 17:15:00
12:35 PM,62.6,53.6,72,29.98,10.0,WNW,8.1,-,N/A,,Overcast,290,2013-10-15 17:35:00
12:55 PM,62.6,53.6,72,29.98,10.0,West,9.2,-,N/A,,Overcast,270,2013-10-15 17:55:00
1:15 PM,62.6,53.6,72,29.97,10.0,West,9.2,-,N/A,,Overcast,260,2013-10-15 18:15:00
1:35 PM,62.6,53.6,72,29.97,10.0,West,9.2,-,N/A,,Overcast,260,2013-10-15 18:35:00
1:55 PM,62.6,53.6,72,29.97,10.0,WSW,10.4,-,N/A,,Mostly Cloudy,250,2013-10-15 18:55:00
2:15 PM,60.8,51.8,72,29.97,10.0,West,8.1,-,N/A,,Overcast,270,2013-10-15 19:15:00
2:35 PM,60.8,51.8,72,29.97,10.0,WSW,6.9,-,N/A,,Mostly Cloudy,250,2013-10-15 19:35:00
2:55 PM,60.8,51.8,72,29.97,10.0,West,10.4,-,N/A,,Partly Cloudy,260,2013-10-15 19:55:00
3:15 PM,60.8,50.0,68,29.97,10.0,West,9.2,-,N/A,,Clear,270,2013-10-15 20:15:00
3:35 PM,59.0,51.8,77,29.97,10.0,West,8.1,-,N/A,,Partly Cloudy,280,2013-10-15 20:35:00
3:55 PM,60.8,51.8,72,29.97,10.0,West,5.8,-,N/A,,Scattered Clouds,260,2013-10-15 20:55:00
4:15 PM,59.0,50.0,72,29.98,10.0,WNW,4.6,-,N/A,,Partly Cloudy,290,2013-10-15 21:15:00
4:35 PM,59.0,48.2,67,29.98,10.0,NW,6.9,-,N/A,,Clear,310,2013-10-15 21:35:00
4:55 PM,57.2,48.2,72,29.99,10.0,WNW,6.9,-,N/A,,Clear,290,2013-10-15 21:55:00
5:15 PM,57.2,46.4,67,29.98,10.0,WNW,8.1,-,N/A,,Clear,290,2013-10-15 22:15:00
5:35 PM,57.2,46.4,67,29.98,10.0,West,5.8,-,N/A,,Clear,280,2013-10-15 22:35:00
5:55 PM,55.4,46.4,72,29.99,10.0,West,5.8,-,N/A,,Clear,270,2013-10-15 22:55:00
6:15 PM,55.4,46.4,72,30.00,10.0,West,6.9,-,N/A,,Clear,270,2013-10-15 23:15:00
6:35 PM,55.4,46.4,72,30.00,10.0,WSW,3.5,-,N/A,,Clear,250,2013-10-15 23:35:00
6:55 PM,55.4,46.4,72,30.00,10.0,West,4.6,-,N/A,,Clear,280,2013-10-15 23:55:00
7:15 PM,55.4,46.4,72,30.01,10.0,WSW,4.6,-,N/A,,Clear,240,2013-10-16 00:15:00
7:35 PM,53.6,46.4,77,30.02,10.0,West,4.6,-,N/A,,Clear,260,2013-10-16 00:35:00
7:55 PM,53.6,46.4,77,30.03,10.0,WSW,4.6,-,N/A,,Clear,250,2013-10-16 00:55:00
8:15 PM,53.6,46.4,77,30.03,10.0,West,4.6,-,N/A,,Clear,260,2013-10-16 01:15:00
8:35 PM,53.6,46.4,77,30.04,10.0,West,5.8,-,N/A,,Clear,260,2013-10-16 01:35:00
8:55 PM,53.6,46.4,77,30.04,10.0,West,4.6,-,N/A,,Clear,260,2013-10-16 01:55:00
9:15 PM,53.6,46.4,77,30.04,10.0,WSW,4.6,-,N/A,,Clear,240,2013-10-16 02:15:00
9:35 PM,51.8,46.4,82,30.05,10.0,WSW,3.5,-,N/A,,Clear,240,2013-10-16 02:35:00
9:55 PM,50.0,46.4,87,30.05,10.0,Calm,Calm,-,N/A,,Clear,0,2013-10-16 02:55:00
10:15 PM,50.0,46.4,87,30.05,10.0,Calm,Calm,-,N/A,,Clear,0,2013-10-16 03:15:00
10:35 PM,50.0,46.4,87,30.05,10.0,West,3.5,-,N/A,,Clear,280,2013-10-16 03:35:00
10:55 PM,51.8,44.6,76,30.06,10.0,NW,3.5,-,N/A,,Clear,320,2013-10-16 03:55:00
11:15 PM,50.0,44.6,82,30.06,10.0,Calm,Calm,-,N/A,,Clear,0,2013-10-16 04:15:00
11:35 PM,51.8,42.8,71,30.06,10.0,NNW,5.8,-,N/A,,Clear,340,2013-10-16 04:35:00
11:55 PM,51.8,39.2,62,30.06,10.0,NNW,4.6,-,N/A,,Scattered Clouds,330,2013-10-16 04:55:00